Time,TemperatureF,DewpointF,PressureIn,WindDirection,WindDirectionDegrees,WindSpeedMPH,WindSpeedGustMPH,Humidity,HourlyPrecipIn,Conditions,Clouds,dailyrainin,SoftwareType,DateUTC
2013-05-07 00:01:00,50.7,46.0,29.98,SSE,162,2.0,3.0,84,0.00,,,0.00,Wunderground v.1.15,2013-05-07 07:01:00,
2013-05-07 00:06:00,50.8,46.1,29.98,South,175,2.0,3.0,84,0.00,,,0.00,Wunderground v.1.15,2013-05-07 07:06:00,
2013-05-07 00:11:00,50.9,46.2,29.98,South,175,1.0,2.0,84,0.00,,,0.00,Wunderground v.1.15,2013-05-07 07:11:00,
2013-05-07 00:16:00,50.9,45.9,29.98,SSE,167,1.0,3.0,83,0.00,,,0.00,Wunderground v.1.15,2013-05-07 07:16:00,
2013-05-07 00:22:00,51.0,46.0,29.98,SSE,166,2.0,3.0,83,0.00,,,0.00,Wunderground v.1.15,2013-05-07 07:22:00,
2013-05-07 00:27:00,51.0,46.3,29.98,South,171,2.0,4.0,84,0.00,,,0.00,Wunderground v.1.15,2013-05-07 07:27:00,
2013-05-07 00:32:00,50.9,46.2,29.98,South,169,2.0,4.0,84,0.00,,,0.00,Wunderground v.1.15,2013-05-07 07:32:00,
2013-05-07 00:37:00,50.9,46.2,29.98,SSE,161,2.0,4.0,84,0.00,,,0.00,Wunderground v.1.15,2013-05-07 07:37:00,
2013-05-07 00:42:00,50.9,46.2,29.98,SSE,167,3.0,4.0,84,0.00,,,0.00,Wunderground v.1.15,2013-05-07 07:42:00,
2013-05-07 00:48:00,50.9,46.2,29.98,SSE,167,2.0,4.0,84,0.00,,,0.00,Wunderground v.1.15,2013-05-07 07:48:00,
2013-05-07 00:53:00,50.9,46.2,29.98,SSE,155,3.0,4.0,84,0.00,,,0.00,Wunderground v.1.15,2013-05-07 07:53:00,
2013-05-07 00:58:00,50.9,46.2,29.98,SSE,159,3.0,4.0,84,0.00,,,0.00,Wunderground v.1.15,2013-05-07 07:58:00,
2013-05-07 01:03:00,50.9,45.9,29.98,SSE,152,4.0,4.0,83,0.00,,,0.00,Wunderground v.1.15,2013-05-07 08:03:00,
2013-05-07 01:08:00,50.9,46.2,29.98,SSE,159,4.0,5.0,84,0.00,,,0.00,Wunderground v.1.15,2013-05-07 08:08:00,
2013-05-07 01:14:00,50.9,46.2,29.97,SSE,164,3.0,4.0,84,0.00,,,0.00,Wunderground v.1.15,2013-05-07 08:14:00,
2013-05-07 01:19:00,50.7,46.0,29.97,SSE,167,3.0,4.0,84,0.00,,,0.00,Wunderground v.1.15,2013-05-07 08:19:00,
2013-05-07 01:24:00,50.5,46.2,29.97,SSE,165,2.0,4.0,85,0.00,,,0.00,Wunderground v.1.15,2013-05-07 08:24:00,
2013-05-07 01:29:00,50.5,46.2,29.97,SSE,153,3.0,5.0,85,0.00,,,0.00,Wunderground v.1.15,2013-05-07 08:29:00,
2013-05-07 01:34:00,50.6,46.3,29.97,SSE,165,4.0,5.0,85,0.00,,,0.00,Wunderground v.1.15,2013-05-07 08:34:00,
2013-05-07 01:40:00,50.8,46.1,29.97,South,170,5.0,5.0,84,0.00,,,0.00,Wunderground v.1.15,2013-05-07 08:40:00,
2013-05-07 01:45:00,50.8,46.5,29.97,SSE,163,4.0,5.0,85,0.00,,,0.00,Wunderground v.1.15,2013-05-07 08:45:00,
2013-05-07 01:50:00,50.6,46.3,29.97,SE,145,3.0,5.0,85,0.00,,,0.00,Wunderground v.1.15,2013-05-07 08:50:00,
2013-05-07 01:55:00,50.5,46.2,29.97,South,169,3.0,5.0,85,0.00,,,0.00,Wunderground v.1.15,2013-05-07 08:55:00,
2013-05-07 02:00:00,50.4,46.1,29.97,SE,143,3.0,4.0,85,0.00,,,0.00,Wunderground v.1.15,2013-05-07 09:00:00,
2013-05-07 02:06:00,50.5,45.8,29.97,SSE,164,4.0,5.0,84,0.00,,,0.00,Wunderground v.1.15,2013-05-07 09:06:00,
2013-05-07 02:11:00,50.5,45.5,29.97,SSE,168,3.0,4.0,83,0.00,,,0.00,Wunderground v.1.15,2013-05-07 09:11:00,
2013-05-07 02:16:00,50.4,45.7,29.97,SSE,164,3.0,4.0,84,0.00,,,0.00,Wunderground v.1.15,2013-05-07 09:16:00,
2013-05-07 02:21:00,50.2,45.6,29.97,SSE,168,2.0,3.0,84,0.00,,,0.00,Wunderground v.1.15,2013-05-07 09:21:00,
2013-05-07 02:26:00,49.9,45.6,29.97,South,169,2.0,3.0,85,0.00,,,0.00,Wunderground v.1.15,2013-05-07 09:26:00,
2013-05-07 02:32:00,49.6,45.3,29.96,SSE,167,2.0,7.0,85,0.00,,,0.00,Wunderground v.1.15,2013-05-07 09:32:00,
2013-05-07 02:37:00,49.5,45.5,29.96,South,173,3.0,7.0,86,0.00,,,0.00,Wunderground v.1.15,2013-05-07 09:37:00,
2013-05-07 02:42:00,49.6,45.6,29.96,SE,146,4.0,7.0,86,0.00,,,0.00,Wunderground v.1.15,2013-05-07 09:42:00,
2013-05-07 02:47:00,49.8,45.8,29.96,South,169,5.0,7.0,86,0.00,,,0.00,Wunderground v.1.15,2013-05-07 09:47:00,
2013-05-07 02:52:00,49.9,45.9,29.96,SSE,149,4.0,7.0,86,0.00,,,0.00,Wunderground v.1.15,2013-05-07 09:52:00,
2013-05-07 02:57:00,50.0,45.7,29.96,SSE,157,5.0,7.0,85,0.00,,,0.00,Wunderground v.1.15,2013-05-07 09:57:00,
2013-05-07 03:03:00,50.1,45.8,29.96,SE,146,4.0,5.0,85,0.00,,,0.00,Wunderground v.1.15,2013-05-07 10:03:00,
2013-05-07 03:08:00,50.2,45.6,29.96,South,177,4.0,6.0,84,0.00,,,0.00,Wunderground v.1.15,2013-05-07 10:08:00,
2013-05-07 03:13:00,50.3,45.6,29.96,SSE,165,5.0,7.0,84,0.00,,,0.00,Wunderground v.1.15,2013-05-07 10:13:00,
2013-05-07 03:18:00,50.4,45.7,29.96,SE,146,6.0,7.0,84,0.00,,,0.00,Wunderground v.1.15,2013-05-07 10:18:00,
2013-05-07 03:23:00,50.3,45.6,29.96,SE,140,5.0,7.0,84,0.00,,,0.00,Wunderground v.1.15,2013-05-07 10:23:00,
2013-05-07 03:28:00,50.3,45.6,29.96,ESE,119,6.0,7.0,84,0.00,,,0.00,Wunderground v.1.15,2013-05-07 10:28:00,
2013-05-07 03:33:00,50.3,45.6,29.96,SE,138,6.0,7.0,84,0.00,,,0.00,Wunderground v.1.15,2013-05-07 10:33:00,
2013-05-07 03:39:00,50.4,45.4,29.96,SSE,153,6.0,7.0,83,0.00,,,0.00,Wunderground v.1.15,2013-05-07 10:39:00,
2013-05-07 03:44:00,50.4,45.4,29.96,SE,145,6.0,7.0,83,0.00,,,0.00,Wunderground v.1.15,2013-05-07 10:44:00,
2013-05-07 03:49:00,50.5,45.2,29.96,SE,136,6.0,7.0,82,0.00,,,0.00,Wunderground v.1.15,2013-05-07 10:49:00,
2013-05-07 03:54:00,50.5,45.2,29.97,South,169,6.0,7.0,82,0.00,,,0.00,Wunderground v.1.15,2013-05-07 10:54:00,
2013-05-07 03:59:00,50.7,45.4,29.97,SSE,148,5.0,7.0,82,0.00,,,0.00,Wunderground v.1.15,2013-05-07 10:59:00,
2013-05-07 04:05:00,50.8,45.2,29.97,SSE,150,6.0,8.0,81,0.00,,,0.00,Wunderground v.1.15,2013-05-07 11:05:00,
2013-05-07 04:10:00,50.9,45.3,29.97,SSE,163,6.0,9.0,81,0.00,,,0.00,Wunderground v.1.15,2013-05-07 11:10:00,
2013-05-07 04:15:00,51.0,45.0,29.97,SSE,167,7.0,9.0,80,0.00,,,0.00,Wunderground v.1.15,2013-05-07 11:15:00,
2013-05-07 04:20:00,51.1,45.1,29.97,SSE,159,7.0,7.0,80,0.00,,,0.00,Wunderground v.1.15,2013-05-07 11:20:00,
2013-05-07 04:25:00,51.3,45.3,29.97,SSE,157,6.0,7.0,80,0.00,,,0.00,Wunderground v.1.15,2013-05-07 11:25:00,
2013-05-07 04:31:00,51.4,45.4,29.97,South,169,4.0,8.0,80,0.00,,,0.00,Wunderground v.1.15,2013-05-07 11:31:00,
2013-05-07 04:36:00,51.4,45.4,29.97,South,175,3.0,8.0,80,0.00,,,0.00,Wunderground v.1.15,2013-05-07 11:36:00,
2013-05-07 04:42:00,51.2,45.2,29.97,South,175,1.0,8.0,80,0.00,,,0.00,Wunderground v.1.15,2013-05-07 11:42:00,
2013-05-07 04:47:00,51.0,45.0,29.97,South,187,1.0,8.0,80,0.00,,,0.00,Wunderground v.1.15,2013-05-07 11:47:00,
2013-05-07 04:52:00,50.9,45.3,29.97,South,186,1.0,8.0,81,0.00,,,0.00,Wunderground v.1.15,2013-05-07 11:52:00,
2013-05-07 04:57:00,50.8,45.2,29.97,South,186,1.0,8.0,81,0.00,,,0.00,Wunderground v.1.15,2013-05-07 11:57:00,
2013-05-07 05:02:00,50.6,45.0,29.97,South,186,1.0,1.0,81,0.00,,,0.00,Wunderground v.1.15,2013-05-07 12:02:00,
2013-05-07 05:08:00,50.5,45.2,29.97,South,186,1.0,2.0,82,0.00,,,0.00,Wunderground v.1.15,2013-05-07 12:08:00,
2013-05-07 05:13:00,50.4,45.1,29.97,South,186,1.0,2.0,82,0.00,,,0.00,Wunderground v.1.15,2013-05-07 12:13:00,
2013-05-07 05:18:00,50.3,45.0,29.98,South,186,1.0,2.0,82,0.00,,,0.00,Wunderground v.1.15,2013-05-07 12:18:00,
2013-05-07 05:23:00,50.3,45.0,29.98,SSW,198,1.0,2.0,82,0.00,,,0.00,Wunderground v.1.15,2013-05-07 12:23:00,
2013-05-07 05:28:00,50.2,44.9,29.98,SSW,198,1.0,2.0,82,0.00,,,0.00,Wunderground v.1.15,2013-05-07 12:28:00,
2013-05-07 05:34:00,50.1,44.8,29.98,SSW,194,1.0,6.0,82,0.00,,,0.00,Wunderground v.1.15,2013-05-07 12:34:00,
2013-05-07 05:39:00,50.0,44.7,29.98,SSW,195,1.0,6.0,82,0.00,,,0.00,Wunderground v.1.15,2013-05-07 12:39:00,
2013-05-07 05:44:00,49.9,44.9,29.98,SSW,195,1.0,6.0,83,0.00,,,0.00,Wunderground v.1.15,2013-05-07 12:44:00,
2013-05-07 05:49:00,49.8,44.8,29.98,SSW,195,1.0,6.0,83,0.00,,,0.00,Wunderground v.1.15,2013-05-07 12:49:00,
2013-05-07 05:54:00,49.7,44.7,29.98,SSW,195,2.0,6.0,83,0.00,,,0.00,Wunderground v.1.15,2013-05-07 12:54:00,
2013-05-07 06:00:00,49.5,44.9,29.98,SSW,195,1.0,1.0,84,0.00,,,0.00,Wunderground v.1.15,2013-05-07 13:00:00,
2013-05-07 06:06:00,49.4,44.8,29.98,SSW,195,1.0,1.0,84,0.00,,,0.00,Wunderground v.1.15,2013-05-07 13:06:00,
2013-05-07 06:11:00,49.2,44.6,29.98,SSW,195,1.0,1.0,84,0.00,,,0.00,Wunderground v.1.15,2013-05-07 13:11:00,
2013-05-07 06:16:00,49.2,44.9,29.98,South,170,2.0,3.0,85,0.00,,,0.00,Wunderground v.1.15,2013-05-07 13:16:00,
2013-05-07 06:22:00,49.2,44.9,29.99,SSE,166,2.0,3.0,85,0.00,,,0.00,Wunderground v.1.15,2013-05-07 13:22:00,
2013-05-07 06:27:00,49.3,45.0,29.99,South,171,3.0,5.0,85,0.00,,,0.00,Wunderground v.1.15,2013-05-07 13:27:00,
2013-05-07 06:32:00,49.5,45.2,29.99,South,173,3.0,4.0,85,0.00,,,0.00,Wunderground v.1.15,2013-05-07 13:32:00,
2013-05-07 06:37:00,49.6,45.3,29.99,SSE,167,3.0,4.0,85,0.00,,,0.00,Wunderground v.1.15,2013-05-07 13:37:00,
2013-05-07 06:42:00,49.6,45.3,29.99,South,169,2.0,3.0,85,0.00,,,0.00,Wunderground v.1.15,2013-05-07 13:42:00,
2013-05-07 06:48:00,49.7,45.4,29.99,SSE,157,3.0,5.0,85,0.00,,,0.00,Wunderground v.1.15,2013-05-07 13:48:00,
2013-05-07 06:53:00,49.9,45.6,29.99,SSE,167,3.0,3.0,85,0.00,,,0.00,Wunderground v.1.15,2013-05-07 13:53:00,
2013-05-07 06:58:00,50.1,45.5,29.99,South,174,2.0,3.0,84,0.00,,,0.00,Wunderground v.1.15,2013-05-07 13:58:00,
2013-05-07 07:03:00,50.3,46.0,29.99,South,171,2.0,5.0,85,0.00,,,0.00,Wunderground v.1.15,2013-05-07 14:03:00,
2013-05-07 07:08:00,50.5,45.8,29.99,SSE,167,3.0,5.0,84,0.00,,,0.00,Wunderground v.1.15,2013-05-07 14:08:00,
2013-05-07 07:14:00,50.7,46.0,30.00,South,169,3.0,4.0,84,0.00,,,0.00,Wunderground v.1.15,2013-05-07 14:14:00,
2013-05-07 07:19:00,50.9,46.2,30.00,South,178,3.0,5.0,84,0.00,,,0.00,Wunderground v.1.15,2013-05-07 14:19:00,
2013-05-07 07:24:00,51.1,46.4,30.00,South,175,3.0,4.0,84,0.00,,,0.00,Wunderground v.1.15,2013-05-07 14:24:00,
2013-05-07 07:29:00,51.2,46.2,30.00,South,175,3.0,5.0,83,0.00,,,0.00,Wunderground v.1.15,2013-05-07 14:29:00,
2013-05-07 07:34:00,51.4,46.4,30.00,South,178,3.0,6.0,83,0.00,,,0.00,Wunderground v.1.15,2013-05-07 14:34:00,
2013-05-07 07:40:00,51.5,46.5,30.00,South,172,3.0,6.0,83,0.00,,,0.00,Wunderground v.1.15,2013-05-07 14:40:00,
2013-05-07 07:45:00,51.5,46.5,30.00,South,178,3.0,6.0,83,0.00,,,0.00,Wunderground v.1.15,2013-05-07 14:45:00,
2013-05-07 07:50:00,51.5,46.5,30.00,South,172,3.0,6.0,83,0.00,,,0.00,Wunderground v.1.15,2013-05-07 14:50:00,
2013-05-07 07:55:00,51.8,46.8,30.00,SSW,197,3.0,6.0,83,0.00,,,0.00,Wunderground v.1.15,2013-05-07 14:55:00,
2013-05-07 08:00:00,52.2,46.9,30.01,SSW,196,3.0,3.0,82,0.00,,,0.00,Wunderground v.1.15,2013-05-07 15:00:00,
2013-05-07 08:06:00,52.6,46.9,30.01,SSW,194,3.0,4.0,81,0.00,,,0.00,Wunderground v.1.15,2013-05-07 15:06:00,
2013-05-07 08:11:00,52.7,47.0,30.01,South,173,3.0,3.0,81,0.00,,,0.00,Wunderground v.1.15,2013-05-07 15:11:00,
2013-05-07 08:16:00,53.0,47.3,30.01,South,170,3.0,3.0,81,0.00,,,0.00,Wunderground v.1.15,2013-05-07 15:16:00,
2013-05-07 08:21:00,53.0,47.3,30.01,South,176,3.0,4.0,81,0.00,,,0.00,Wunderground v.1.15,2013-05-07 15:21:00,
2013-05-07 08:26:00,53.3,47.6,30.01,SSE,166,3.0,4.0,81,0.00,,,0.00,Wunderground v.1.15,2013-05-07 15:26:00,
2013-05-07 08:32:00,54.8,47.7,30.01,SSE,167,4.0,6.0,77,0.00,,,0.00,Wunderground v.1.15,2013-05-07 15:32:00,
2013-05-07 08:37:00,54.6,47.5,30.01,South,189,4.0,6.0,77,0.00,,,0.00,Wunderground v.1.15,2013-05-07 15:37:00,
2013-05-07 08:42:00,55.2,47.8,30.02,South,173,4.0,6.0,76,0.00,,,0.00,Wunderground v.1.15,2013-05-07 15:42:00,
2013-05-07 08:47:00,55.8,48.0,30.02,South,172,4.0,6.0,75,0.00,,,0.00,Wunderground v.1.15,2013-05-07 15:47:00,
2013-05-07 08:52:00,56.3,48.1,30.02,South,185,4.0,6.0,74,0.00,,,0.00,Wunderground v.1.15,2013-05-07 15:52:00,
2013-05-07 08:58:00,55.8,47.6,30.02,South,172,4.0,6.0,74,0.00,,,0.00,Wunderground v.1.15,2013-05-07 15:58:00,
2013-05-07 09:03:00,55.0,47.2,30.02,SSE,163,4.0,6.0,75,0.00,,,0.00,Wunderground v.1.15,2013-05-07 16:03:00,
2013-05-07 09:08:00,55.0,47.6,30.02,SSE,165,5.0,7.0,76,0.00,,,0.00,Wunderground v.1.15,2013-05-07 16:08:00,
2013-05-07 09:13:00,55.8,48.0,30.02,SSW,195,5.0,6.0,75,0.00,,,0.00,Wunderground v.1.15,2013-05-07 16:13:00,
2013-05-07 09:18:00,56.7,48.1,30.02,South,172,5.0,6.0,73,0.00,,,0.00,Wunderground v.1.15,2013-05-07 16:18:00,
2013-05-07 09:24:00,57.3,47.6,30.03,South,178,4.0,5.0,70,0.00,,,0.00,Wunderground v.1.15,2013-05-07 16:24:00,
2013-05-07 09:29:00,56.6,47.3,30.03,South,173,4.0,6.0,71,0.00,,,0.00,Wunderground v.1.15,2013-05-07 16:29:00,
2013-05-07 09:34:00,56.4,47.1,30.03,SSW,207,4.0,8.0,71,0.00,,,0.00,Wunderground v.1.15,2013-05-07 16:34:00,
2013-05-07 09:39:00,56.4,47.1,30.03,SW,227,4.0,8.0,71,0.00,,,0.00,Wunderground v.1.15,2013-05-07 16:39:00,
2013-05-07 09:44:00,56.1,46.8,30.03,South,176,4.0,8.0,71,0.00,,,0.00,Wunderground v.1.15,2013-05-07 16:44:00,
2013-05-07 09:49:00,55.8,46.9,30.03,South,171,5.0,8.0,72,0.00,,,0.00,Wunderground v.1.15,2013-05-07 16:49:00,
2013-05-07 09:54:00,55.6,47.4,30.03,SW,222,4.0,8.0,74,0.00,,,0.00,Wunderground v.1.15,2013-05-07 16:54:00,
2013-05-07 09:59:00,56.2,47.7,30.03,South,172,3.0,8.0,73,0.00,,,0.00,Wunderground v.1.15,2013-05-07 16:59:00,
2013-05-07 10:05:00,56.7,47.8,30.03,South,179,3.0,4.0,72,0.00,,,0.00,Wunderground v.1.15,2013-05-07 17:05:00,
2013-05-07 10:10:00,57.4,48.4,30.03,SSW,192,3.0,3.0,72,0.00,,,0.00,Wunderground v.1.15,2013-05-07 17:10:00,
2013-05-07 10:16:00,57.3,48.0,30.03,SW,228,3.0,3.0,71,0.00,,,0.00,Wunderground v.1.15,2013-05-07 17:16:00,
2013-05-07 10:21:00,58.8,49.0,30.03,SW,215,3.0,4.0,70,0.00,,,0.00,Wunderground v.1.15,2013-05-07 17:21:00,
2013-05-07 10:26:00,57.9,47.4,30.03,South,178,2.0,4.0,68,0.00,,,0.00,Wunderground v.1.15,2013-05-07 17:26:00,
2013-05-07 10:31:00,57.4,47.3,30.03,SSW,206,2.0,9.0,69,0.00,,,0.00,Wunderground v.1.15,2013-05-07 17:31:00,
2013-05-07 10:36:00,57.6,47.5,30.03,SW,234,2.0,9.0,69,0.00,,,0.00,Wunderground v.1.15,2013-05-07 17:36:00,
2013-05-07 10:41:00,58.0,47.9,30.03,WNW,294,2.0,9.0,69,0.00,,,0.00,Wunderground v.1.15,2013-05-07 17:41:00,
2013-05-07 10:47:00,58.1,47.6,30.03,West,280,1.0,9.0,68,0.00,,,0.00,Wunderground v.1.15,2013-05-07 17:47:00,
2013-05-07 10:53:00,57.9,47.4,30.03,SW,234,1.0,9.0,68,0.00,,,0.00,Wunderground v.1.15,2013-05-07 17:53:00,
2013-05-07 10:58:00,58.1,48.0,30.03,WSW,254,2.0,9.0,69,0.00,,,0.00,Wunderground v.1.15,2013-05-07 17:58:00,
2013-05-07 11:04:00,58.9,48.0,30.03,WSW,240,1.0,2.0,67,0.00,,,0.00,Wunderground v.1.15,2013-05-07 18:04:00,
2013-05-07 11:09:00,61.5,47.9,30.03,SSW,196,2.0,4.0,61,0.00,,,0.00,Wunderground v.1.15,2013-05-07 18:09:00,
2013-05-07 11:15:00,61.9,48.3,30.03,West,269,3.0,5.0,61,0.00,,,0.00,Wunderground v.1.15,2013-05-07 18:15:00,
2013-05-07 11:20:00,64.1,49.0,30.03,WSW,253,3.0,3.0,58,0.00,,,0.00,Wunderground v.1.15,2013-05-07 18:20:00,
2013-05-07 11:25:00,64.2,48.6,30.03,South,169,3.0,3.0,57,0.00,,,0.00,Wunderground v.1.15,2013-05-07 18:25:00,
2013-05-07 11:30:00,63.4,47.4,30.03,WNW,297,3.0,3.0,56,0.00,,,0.00,Wunderground v.1.15,2013-05-07 18:30:00,
2013-05-07 11:35:00,61.5,47.0,30.03,SW,214,3.0,5.0,59,0.00,,,0.00,Wunderground v.1.15,2013-05-07 18:35:00,
2013-05-07 11:40:00,60.8,47.7,30.03,West,274,3.0,3.0,62,0.00,,,0.00,Wunderground v.1.15,2013-05-07 18:40:00,
2013-05-07 11:45:00,60.9,48.2,30.03,West,273,2.0,5.0,63,0.00,,,0.00,Wunderground v.1.15,2013-05-07 18:45:00,
2013-05-07 11:50:00,62.6,47.6,30.03,SW,219,2.0,5.0,58,0.00,,,0.00,Wunderground v.1.15,2013-05-07 18:50:00,
2013-05-07 11:56:00,61.3,46.8,30.03,SSW,196,3.0,5.0,59,0.00,,,0.00,Wunderground v.1.15,2013-05-07 18:56:00,
2013-05-07 12:01:00,60.6,47.1,30.03,South,186,2.0,4.0,61,0.00,,,0.00,Wunderground v.1.15,2013-05-07 19:01:00,
2013-05-07 12:06:00,60.5,46.5,30.03,West,260,2.0,4.0,60,0.00,,,0.00,Wunderground v.1.15,2013-05-07 19:06:00,
2013-05-07 12:11:00,59.8,46.3,30.03,WNW,284,2.0,2.0,61,0.00,,,0.00,Wunderground v.1.15,2013-05-07 19:11:00,
2013-05-07 12:16:00,59.4,46.4,30.03,North,5,3.0,7.0,62,0.00,,,0.00,Wunderground v.1.15,2013-05-07 19:16:00,
2013-05-07 12:22:00,60.1,47.0,30.03,SW,230,3.0,5.0,62,0.00,,,0.00,Wunderground v.1.15,2013-05-07 19:22:00,
2013-05-07 12:27:00,60.3,46.8,30.03,NW,311,2.0,5.0,61,0.00,,,0.00,Wunderground v.1.15,2013-05-07 19:27:00,
2013-05-07 12:32:00,60.0,46.5,30.03,WNW,292,2.0,6.0,61,0.00,,,0.00,Wunderground v.1.15,2013-05-07 19:32:00,
2013-05-07 12:37:00,60.0,47.4,30.03,West,273,2.0,6.0,63,0.00,,,0.00,Wunderground v.1.15,2013-05-07 19:37:00,
2013-05-07 12:42:00,60.2,47.1,30.03,NW,311,2.0,6.0,62,0.00,,,0.00,Wunderground v.1.15,2013-05-07 19:42:00,
2013-05-07 12:48:00,60.4,47.3,30.03,West,268,3.0,6.0,62,0.00,,,0.00,Wunderground v.1.15,2013-05-07 19:48:00,
2013-05-07 12:53:00,60.8,47.3,30.02,West,271,2.0,6.0,61,0.00,,,0.00,Wunderground v.1.15,2013-05-07 19:53:00,
2013-05-07 12:58:00,61.2,48.1,30.02,West,270,2.0,6.0,62,0.00,,,0.00,Wunderground v.1.15,2013-05-07 19:58:00,
2013-05-07 13:03:00,61.4,47.4,30.03,WSW,240,2.0,3.0,60,0.00,,,0.00,Wunderground v.1.15,2013-05-07 20:03:00,
2013-05-07 13:08:00,61.2,47.6,30.03,WNW,298,2.0,3.0,61,0.00,,,0.00,Wunderground v.1.15,2013-05-07 20:08:00,
2013-05-07 13:14:00,61.3,47.7,30.03,West,260,1.0,2.0,61,0.00,,,0.00,Wunderground v.1.15,2013-05-07 20:14:00,
2013-05-07 13:19:00,61.1,47.5,30.03,SW,219,2.0,4.0,61,0.00,,,0.00,Wunderground v.1.15,2013-05-07 20:19:00,
2013-05-07 13:24:00,60.9,47.4,30.03,WNW,303,2.0,5.0,61,0.00,,,0.00,Wunderground v.1.15,2013-05-07 20:24:00,
2013-05-07 13:29:00,60.7,47.6,30.03,West,277,1.0,5.0,62,0.00,,,0.00,Wunderground v.1.15,2013-05-07 20:29:00,
2013-05-07 13:34:00,60.9,47.4,30.03,WNW,293,1.0,7.0,61,0.00,,,0.00,Wunderground v.1.15,2013-05-07 20:34:00,
2013-05-07 13:40:00,59.8,47.2,30.03,SSW,201,2.0,2.0,63,0.00,,,0.00,Wunderground v.1.15,2013-05-07 20:40:00,
2013-05-07 13:45:00,59.8,47.2,30.03,WNW,301,2.0,7.0,63,0.00,,,0.00,Wunderground v.1.15,2013-05-07 20:45:00,
2013-05-07 13:50:00,60.1,47.0,30.03,WSW,240,1.0,1.0,62,0.00,,,0.00,Wunderground v.1.15,2013-05-07 20:50:00,
2013-05-07 13:55:00,60.1,47.9,30.03,West,272,2.0,7.0,64,0.00,,,0.00,Wunderground v.1.15,2013-05-07 20:55:00,
2013-05-07 14:00:00,60.2,48.0,30.03,NW,307,2.0,2.0,64,0.00,,,0.00,Wunderground v.1.15,2013-05-07 21:00:00,
2013-05-07 14:06:00,60.6,47.9,30.03,WNW,295,1.0,3.0,63,0.00,,,0.00,Wunderground v.1.15,2013-05-07 21:06:00,
2013-05-07 14:11:00,60.5,47.8,30.03,SW,219,2.0,2.0,63,0.00,,,0.00,Wunderground v.1.15,2013-05-07 21:11:00,
2013-05-07 14:16:00,60.3,48.5,30.02,West,280,3.0,6.0,65,0.00,,,0.00,Wunderground v.1.15,2013-05-07 21:16:00,
2013-05-07 14:21:00,60.9,48.2,30.02,WSW,240,3.0,3.0,63,0.00,,,0.00,Wunderground v.1.15,2013-05-07 21:21:00,
2013-05-07 14:26:00,61.6,48.9,30.02,West,264,2.0,3.0,63,0.00,,,0.00,Wunderground v.1.15,2013-05-07 21:26:00,
2013-05-07 14:32:00,61.9,48.7,30.02,WNW,293,1.0,6.0,62,0.00,,,0.00,Wunderground v.1.15,2013-05-07 21:32:00,
2013-05-07 14:38:00,62.4,49.2,30.02,WSW,256,2.0,6.0,62,0.00,,,0.00,Wunderground v.1.15,2013-05-07 21:38:00,
2013-05-07 14:43:00,63.4,48.8,30.02,WSW,250,2.0,6.0,59,0.00,,,0.00,Wunderground v.1.15,2013-05-07 21:43:00,
2013-05-07 14:48:00,64.4,49.8,30.02,WSW,248,2.0,6.0,59,0.00,,,0.00,Wunderground v.1.15,2013-05-07 21:48:00,
2013-05-07 14:53:00,64.2,49.1,30.02,SW,236,3.0,6.0,58,0.00,,,0.00,Wunderground v.1.15,2013-05-07 21:53:00,
2013-05-07 14:58:00,65.5,49.9,30.01,WSW,255,3.0,6.0,57,0.00,,,0.00,Wunderground v.1.15,2013-05-07 21:58:00,
2013-05-07 15:04:00,66.9,49.2,30.01,WSW,238,3.0,5.0,53,0.00,,,0.00,Wunderground v.1.15,2013-05-07 22:04:00,
2013-05-07 15:09:00,68.4,49.0,30.01,NNW,329,3.0,5.0,50,0.00,,,0.00,Wunderground v.1.15,2013-05-07 22:09:00,
2013-05-07 15:14:00,67.8,50.0,30.01,West,270,2.0,3.0,53,0.00,,,0.00,Wunderground v.1.15,2013-05-07 22:14:00,
2013-05-07 15:20:00,67.0,48.8,30.01,NNW,331,4.0,7.0,52,0.00,,,0.00,Wunderground v.1.15,2013-05-07 22:20:00,
2013-05-07 15:25:00,63.5,48.5,30.01,WNW,294,6.0,8.0,58,0.00,,,0.00,Wunderground v.1.15,2013-05-07 22:25:00,
2013-05-07 15:30:00,62.3,48.2,30.01,West,280,6.0,6.0,60,0.00,,,0.00,Wunderground v.1.15,2013-05-07 22:30:00,
2013-05-07 15:35:00,65.1,50.0,30.00,West,261,5.0,8.0,58,0.00,,,0.00,Wunderground v.1.15,2013-05-07 22:35:00,
2013-05-07 15:40:00,67.9,49.6,30.00,West,265,3.0,3.0,52,0.00,,,0.00,Wunderground v.1.15,2013-05-07 22:40:00,
2013-05-07 15:46:00,69.0,49.6,30.00,WNW,288,3.0,8.0,50,0.00,,,0.00,Wunderground v.1.15,2013-05-07 22:46:00,
2013-05-07 15:51:00,69.0,49.0,30.00,West,269,3.0,8.0,49,0.00,,,0.00,Wunderground v.1.15,2013-05-07 22:51:00,
2013-05-07 15:56:00,68.4,49.0,30.00,SW,234,3.0,8.0,50,0.00,,,0.00,Wunderground v.1.15,2013-05-07 22:56:00,
2013-05-07 16:01:00,69.7,49.7,30.00,WSW,240,3.0,6.0,49,0.00,,,0.00,Wunderground v.1.15,2013-05-07 23:01:00,
2013-05-07 16:06:00,69.4,48.9,30.00,NW,311,3.0,6.0,48,0.00,,,0.00,Wunderground v.1.15,2013-05-07 23:06:00,
2013-05-07 16:12:00,66.2,48.6,30.00,West,264,4.0,6.0,53,0.00,,,0.00,Wunderground v.1.15,2013-05-07 23:12:00,
2013-05-07 16:17:00,66.7,49.0,30.00,West,265,4.0,6.0,53,0.00,,,0.00,Wunderground v.1.15,2013-05-07 23:17:00,
2013-05-07 16:22:00,68.4,49.0,30.00,WNW,290,3.0,7.0,50,0.00,,,0.00,Wunderground v.1.15,2013-05-07 23:22:00,
2013-05-07 16:27:00,66.1,48.0,30.00,WNW,301,4.0,11.0,52,0.00,,,0.00,Wunderground v.1.15,2013-05-07 23:27:00,
2013-05-07 16:32:00,63.7,47.7,30.00,SW,235,6.0,9.0,56,0.00,,,0.00,Wunderground v.1.15,2013-05-07 23:32:00,
2013-05-07 16:38:00,66.6,48.4,30.00,West,269,4.0,9.0,52,0.00,,,0.00,Wunderground v.1.15,2013-05-07 23:38:00,
2013-05-07 16:43:00,67.9,48.6,30.00,WNW,292,2.0,8.0,50,0.00,,,0.00,Wunderground v.1.15,2013-05-07 23:43:00,
2013-05-07 16:48:00,67.1,47.8,30.00,West,267,3.0,8.0,50,0.00,,,0.00,Wunderground v.1.15,2013-05-07 23:48:00,
2013-05-07 16:53:00,66.8,48.6,30.00,WNW,303,3.0,8.0,52,0.00,,,0.00,Wunderground v.1.15,2013-05-07 23:53:00,
2013-05-07 16:58:00,66.5,48.3,29.99,SW,233,3.0,8.0,52,0.00,,,0.00,Wunderground v.1.15,2013-05-07 23:58:00,
2013-05-07 17:04:00,66.6,47.9,29.99,West,259,3.0,3.0,51,0.00,,,0.00,Wunderground v.1.15,2013-05-08 00:04:00,
2013-05-07 17:09:00,66.5,47.8,29.99,WNW,283,2.0,6.0,51,0.00,,,0.00,Wunderground v.1.15,2013-05-08 00:09:00,
2013-05-07 17:14:00,65.3,47.7,30.00,NW,321,4.0,5.0,53,0.00,,,0.00,Wunderground v.1.15,2013-05-08 00:14:00,
2013-05-07 17:19:00,65.5,47.9,30.00,West,281,5.0,6.0,53,0.00,,,0.00,Wunderground v.1.15,2013-05-08 00:19:00,
2013-05-07 17:24:00,65.8,47.7,30.00,West,269,3.0,7.0,52,0.00,,,0.00,Wunderground v.1.15,2013-05-08 00:24:00,
2013-05-07 17:30:00,64.2,47.2,30.00,WSW,242,4.0,4.0,54,0.00,,,0.00,Wunderground v.1.15,2013-05-08 00:30:00,
2013-05-07 17:35:00,64.8,47.3,30.00,West,263,4.0,10.0,53,0.00,,,0.00,Wunderground v.1.15,2013-05-08 00:35:00,
2013-05-07 17:40:00,64.8,47.3,30.00,WNW,284,3.0,3.0,53,0.00,,,0.00,Wunderground v.1.15,2013-05-08 00:40:00,
2013-05-07 17:45:00,65.1,47.0,30.00,WSW,242,3.0,10.0,52,0.00,,,0.00,Wunderground v.1.15,2013-05-08 00:45:00,
2013-05-07 17:50:00,64.1,47.1,30.00,WNW,282,3.0,3.0,54,0.00,,,0.00,Wunderground v.1.15,2013-05-08 00:50:00,
2013-05-07 17:56:00,63.9,46.9,30.00,WNW,295,3.0,10.0,54,0.00,,,0.00,Wunderground v.1.15,2013-05-08 00:56:00,
2013-05-07 18:01:00,62.1,46.7,30.00,WNW,299,6.0,9.0,57,0.00,,,0.00,Wunderground v.1.15,2013-05-08 01:01:00,
2013-05-07 18:06:00,61.4,46.9,30.00,NW,311,7.0,9.0,59,0.00,,,0.00,Wunderground v.1.15,2013-05-08 01:06:00,
2013-05-07 18:11:00,61.2,46.3,30.00,West,281,6.0,10.0,58,0.00,,,0.00,Wunderground v.1.15,2013-05-08 01:11:00,
2013-05-07 18:16:00,61.2,46.8,30.00,NW,314,6.0,15.0,59,0.00,,,0.00,Wunderground v.1.15,2013-05-08 01:16:00,
2013-05-07 18:22:00,60.1,46.2,30.00,WNW,294,7.0,7.0,60,0.00,,,0.00,Wunderground v.1.15,2013-05-08 01:22:00,
2013-05-07 18:27:00,59.9,45.5,30.00,West,262,7.0,12.0,59,0.00,,,0.00,Wunderground v.1.15,2013-05-08 01:27:00,
2013-05-07 18:32:00,59.8,45.9,30.00,West,268,5.0,14.0,60,0.00,,,0.00,Wunderground v.1.15,2013-05-08 01:32:00,
2013-05-07 18:37:00,60.4,45.5,30.00,NW,305,2.0,14.0,58,0.00,,,0.00,Wunderground v.1.15,2013-05-08 01:37:00,
2013-05-07 18:42:00,60.0,45.2,30.00,West,278,1.0,14.0,58,0.00,,,0.00,Wunderground v.1.15,2013-05-08 01:42:00,
2013-05-07 18:48:00,59.6,45.2,30.00,NW,306,2.0,14.0,59,0.00,,,0.00,Wunderground v.1.15,2013-05-08 01:48:00,
2013-05-07 18:53:00,58.9,45.0,30.00,NW,310,4.0,14.0,60,0.00,,,0.00,Wunderground v.1.15,2013-05-08 01:53:00,
2013-05-07 18:58:00,57.9,44.5,30.00,NW,306,6.0,14.0,61,0.00,,,0.00,Wunderground v.1.15,2013-05-08 01:58:00,
2013-05-07 19:03:00,57.4,44.5,30.00,WNW,291,7.0,9.0,62,0.00,,,0.00,Wunderground v.1.15,2013-05-08 02:03:00,
2013-05-07 19:08:00,57.2,44.7,30.00,West,277,6.0,9.0,63,0.00,,,0.00,Wunderground v.1.15,2013-05-08 02:08:00,
2013-05-07 19:14:00,56.6,44.1,30.00,West,269,6.0,9.0,63,0.00,,,0.00,Wunderground v.1.15,2013-05-08 02:14:00,
2013-05-07 19:19:00,56.1,44.1,30.00,NW,318,6.0,9.0,64,0.00,,,0.00,Wunderground v.1.15,2013-05-08 02:19:00,
2013-05-07 19:24:00,55.9,44.7,30.00,West,276,4.0,6.0,66,0.00,,,0.00,Wunderground v.1.15,2013-05-08 02:24:00,
2013-05-07 19:29:00,55.3,44.5,30.01,WNW,296,4.0,7.0,67,0.00,,,0.00,Wunderground v.1.15,2013-05-08 02:29:00,
2013-05-07 19:34:00,54.9,44.1,30.01,NW,306,5.0,13.0,67,0.00,,,0.00,Wunderground v.1.15,2013-05-08 02:34:00,
2013-05-07 19:40:00,54.4,44.4,30.01,WNW,291,3.0,3.0,69,0.00,,,0.00,Wunderground v.1.15,2013-05-08 02:40:00,
2013-05-07 19:45:00,54.1,44.5,30.01,WNW,284,2.0,13.0,70,0.00,,,0.00,Wunderground v.1.15,2013-05-08 02:45:00,
2013-05-07 19:50:00,53.7,44.1,30.01,NW,306,2.0,13.0,70,0.00,,,0.00,Wunderground v.1.15,2013-05-08 02:50:00,
2013-05-07 19:55:00,53.2,44.0,30.02,NW,307,3.0,13.0,71,0.00,,,0.00,Wunderground v.1.15,2013-05-08 02:55:00,
2013-05-07 20:00:00,52.9,44.1,30.02,West,281,4.0,4.0,72,0.00,,,0.00,Wunderground v.1.15,2013-05-08 03:00:00,
2013-05-07 20:06:00,52.7,43.9,30.02,WSW,248,3.0,5.0,72,0.00,,,0.00,Wunderground v.1.15,2013-05-08 03:06:00,
2013-05-07 20:11:00,52.5,43.4,30.02,NW,310,2.0,3.0,71,0.00,,,0.00,Wunderground v.1.15,2013-05-08 03:11:00,
2013-05-07 20:16:00,52.1,43.3,30.02,NW,323,1.0,3.0,72,0.00,,,0.00,Wunderground v.1.15,2013-05-08 03:16:00,
2013-05-07 20:21:00,51.8,43.1,30.03,WNW,294,1.0,1.0,72,0.00,,,0.00,Wunderground v.1.15,2013-05-08 03:21:00,
2013-05-07 20:26:00,51.7,43.0,30.03,West,265,2.0,5.0,72,0.00,,,0.00,Wunderground v.1.15,2013-05-08 03:26:00,
2013-05-07 20:32:00,51.6,42.9,30.03,WNW,296,2.0,10.0,72,0.00,,,0.00,Wunderground v.1.15,2013-05-08 03:32:00,
2013-05-07 20:37:00,51.6,43.2,30.03,WNW,294,2.0,10.0,73,0.00,,,0.00,Wunderground v.1.15,2013-05-08 03:37:00,
2013-05-07 20:42:00,51.5,43.5,30.03,NW,313,2.0,10.0,74,0.00,,,0.00,Wunderground v.1.15,2013-05-08 03:42:00,
2013-05-07 20:47:00,51.4,43.7,30.03,WNW,302,2.0,10.0,75,0.00,,,0.00,Wunderground v.1.15,2013-05-08 03:47:00,
2013-05-07 20:52:00,51.0,44.0,30.03,WNW,298,2.0,10.0,77,0.00,,,0.00,Wunderground v.1.15,2013-05-08 03:52:00,
2013-05-07 20:58:00,51.0,44.7,30.03,NW,311,2.0,10.0,79,0.00,,,0.00,Wunderground v.1.15,2013-05-08 03:58:00,
2013-05-07 21:01:00,50.9,45.3,30.04,WNW,296,3.0,5.0,81,0.00,,,0.00,Wunderground v.1.15,2013-05-08 04:01:00,
2013-05-07 21:02:00,50.9,45.3,30.03,WNW,289,3.0,5.0,81,0.00,,,0.00,Wunderground v.1.15,2013-05-08 04:02:00,
2013-05-07 21:05:00,50.8,45.2,30.03,WNW,303,4.0,6.0,81,0.00,,,0.00,Wunderground v.1.15,2013-05-08 04:05:00,
2013-05-07 21:09:00,50.8,44.9,30.04,WNW,300,4.0,6.0,80,0.00,,,0.00,Wunderground v.1.15,2013-05-08 04:09:00,
2013-05-07 21:14:00,50.6,45.0,30.04,WNW,300,4.0,4.0,81,0.00,,,0.00,Wunderground v.1.15,2013-05-08 04:14:00,
2013-05-07 21:20:00,50.6,45.3,30.04,WNW,286,4.0,4.0,82,0.00,,,0.00,Wunderground v.1.15,2013-05-08 04:20:00,
2013-05-07 21:23:00,50.6,45.3,30.04,NW,307,4.0,6.0,82,0.00,,,0.00,Wunderground v.1.15,2013-05-08 04:23:00,
2013-05-07 21:28:00,50.4,45.1,30.04,WNW,284,3.0,6.0,82,0.00,,,0.00,Wunderground v.1.15,2013-05-08 04:28:00,
2013-05-07 21:33:00,50.2,45.2,30.04,WNW,296,2.0,8.0,83,0.00,,,0.00,Wunderground v.1.15,2013-05-08 04:33:00,
2013-05-07 21:38:00,49.9,44.9,30.04,NW,306,2.0,8.0,83,0.00,,,0.00,Wunderground v.1.15,2013-05-08 04:38:00,
2013-05-07 21:43:00,49.9,44.9,30.05,WNW,302,3.0,8.0,83,0.00,,,0.00,Wunderground v.1.15,2013-05-08 04:43:00,
2013-05-07 21:48:00,49.9,44.9,30.05,NW,319,3.0,8.0,83,0.00,,,0.00,Wunderground v.1.15,2013-05-08 04:48:00,
2013-05-07 21:53:00,49.8,45.2,30.05,WNW,296,2.0,8.0,84,0.00,,,0.00,Wunderground v.1.15,2013-05-08 04:53:00,
2013-05-07 21:59:00,49.7,44.7,30.05,WNW,298,3.0,8.0,83,0.00,,,0.00,Wunderground v.1.15,2013-05-08 04:59:00,
2013-05-07 22:04:00,49.8,44.5,30.05,NW,308,3.0,4.0,82,0.00,,,0.00,Wunderground v.1.15,2013-05-08 05:04:00,
2013-05-07 22:09:00,49.6,44.0,30.05,WNW,302,3.0,6.0,81,0.00,,,0.00,Wunderground v.1.15,2013-05-08 05:09:00,
2013-05-07 22:14:00,49.6,44.0,30.05,NW,308,3.0,5.0,81,0.00,,,0.00,Wunderground v.1.15,2013-05-08 05:14:00,
2013-05-07 22:19:00,49.7,44.1,30.05,NW,304,2.0,5.0,81,0.00,,,0.00,Wunderground v.1.15,2013-05-08 05:19:00,
2013-05-07 22:25:00,49.6,43.7,30.05,NW,304,0.0,2.0,80,0.00,,,0.00,Wunderground v.1.15,2013-05-08 05:25:00,
2013-05-07 22:30:00,49.4,43.8,30.05,NW,304,0.0,1.0,81,0.00,,,0.00,Wunderground v.1.15,2013-05-08 05:30:00,
2013-05-07 22:36:00,49.2,43.6,30.05,SSW,213,1.0,8.0,81,0.00,,,0.00,Wunderground v.1.15,2013-05-08 05:36:00,
2013-05-07 22:41:00,49.1,43.5,30.05,SW,221,2.0,8.0,81,0.00,,,0.00,Wunderground v.1.15,2013-05-08 05:41:00,
2013-05-07 22:46:00,49.0,43.4,30.05,SSW,213,1.0,8.0,81,0.00,,,0.00,Wunderground v.1.15,2013-05-08 05:46:00,
2013-05-07 22:51:00,49.0,43.1,30.05,SW,221,1.0,8.0,80,0.00,,,0.00,Wunderground v.1.15,2013-05-08 05:51:00,
2013-05-07 22:56:00,49.2,43.0,30.04,SW,218,1.0,8.0,79,0.00,,,0.00,Wunderground v.1.15,2013-05-08 05:56:00,
2013-05-07 23:01:00,49.2,42.6,30.04,South,185,1.0,2.0,78,0.00,,,0.00,Wunderground v.1.15,2013-05-08 06:01:00,
2013-05-07 23:07:00,49.2,42.6,30.05,SSE,163,2.0,3.0,78,0.00,,,0.00,Wunderground v.1.15,2013-05-08 06:07:00,
2013-05-07 23:12:00,49.5,42.2,30.05,SSE,152,2.0,4.0,76,0.00,,,0.00,Wunderground v.1.15,2013-05-08 06:12:00,
2013-05-07 23:17:00,49.9,42.6,30.05,SE,139,3.0,4.0,76,0.00,,,0.00,Wunderground v.1.15,2013-05-08 06:17:00,
2013-05-07 23:22:00,50.0,42.4,30.05,SSE,165,3.0,3.0,75,0.00,,,0.00,Wunderground v.1.15,2013-05-08 06:22:00,
2013-05-07 23:27:00,50.1,42.5,30.05,SSE,164,3.0,5.0,75,0.00,,,0.00,Wunderground v.1.15,2013-05-08 06:27:00,
2013-05-07 23:32:00,50.2,42.2,30.05,SSE,161,3.0,4.0,74,0.00,,,0.00,Wunderground v.1.15,2013-05-08 06:32:00,
2013-05-07 23:37:00,50.4,42.1,30.05,SSE,164,3.0,4.0,73,0.00,,,0.00,Wunderground v.1.15,2013-05-08 06:37:00,
2013-05-07 23:43:00,50.4,42.1,30.05,SSE,159,3.0,4.0,73,0.00,,,0.00,Wunderground v.1.15,2013-05-08 06:43:00,
2013-05-07 23:48:00,50.4,42.1,30.05,SSE,166,3.0,4.0,73,0.00,,,0.00,Wunderground v.1.15,2013-05-08 06:48:00,
2013-05-07 23:53:00,50.5,41.8,30.05,SSE,160,3.0,4.0,72,0.00,,,0.00,Wunderground v.1.15,2013-05-08 06:53:00,
2013-05-07 23:58:00,50.7,42.0,30.06,South,188,2.0,4.0,72,0.00,,,0.00,Wunderground v.1.15,2013-05-08 06:58:00,